Regional Weather Roundup
Issued by NWS

Home | Current Version | Previous Version | Graphics & Text | Print | Product List | Glossary On
Versions: 1 2 3 4 5 6 7 8 9 10 11 12 13 14 15 16 17 18 19 20 21 22 23 24 25 26 27 28 29 30 31 32 33 34 35 36 37 38 39 40 41 42 43 44 45 46 47 48 49 50
134
ASUS45 KCYS 240310
RWRWY

WYOMING REGIONAL WEATHER ROUNDUP
NATIONAL WEATHER SERVICE CHEYENNE WY
900 PM MDT SAT JUL 23 2016

NOTE:  "FAIR" INDICATES FEW OR NO CLOUDS BELOW 12,000 FEET
WITH NO SIGNIFICANT WEATHER AND/OR OBSTRUCTIONS TO VISIBILITY.

WYZ001-240400-
YELLOWSTONE NATIONAL PARK

CITY           SKY/WX    TMP DP  RH WIND       PRES   REMARKS
LK YELLOWSTONE   N/A     58  33  39 VRB6      30.33R
W YELLOWSTONE  NOT AVBL

$$
WYZ002>013-054>058-071-098>099-240400-
NORTHERN WYOMING

CITY           SKY/WX    TMP DP  RH WIND       PRES   REMARKS
JACKSON        NOT AVBL
CODY           FAIR      73  32  21 NW9       30.11R
GREYBULL       FAIR      83  32  16 NW15      29.97R
WORLAND        FAIR      77  38  24 N6        29.97R
SHERIDAN       FAIR      69  39  33 N7        30.05R
BUFFALO        FAIR      72  38  29 NW9       30.12R
GILLETTE       FAIR      68  36  30 N6        30.06R
HULETT         FAIR      73  34  23 NE5       30.08R
NEWCASTLE      FAIR      77  34  20 N7        30.03R

$$
WYZ014>020-022>026-101>103-240400-
CENTRAL WYOMING

CITY           SKY/WX    TMP DP  RH WIND       PRES   REMARKS
BIG PINEY      FAIR      63  28  26 NW13      30.25R
PINEDALE       FAIR      63  32  31 W7        30.26R
DUBOIS         FAIR      68  18  14 W12       30.22R
LANDER         FAIR      76  25  15 SW12      30.05R
RIVERTON       FAIR      75  29  18 N12       30.07R
CASPER         FAIR      76  35  22 NE13      30.07R
DOUGLAS          N/A    N/A N/A N/A MISG      30.07R

$$
WYZ021-027>030-104>119-240400-
SOUTHERN WYOMING

CITY           SKY/WX    TMP DP  RH WIND       PRES   REMARKS
EVANSTON       FAIR      69  20  15 W8        30.25R
KEMMERER         N/A    N/A N/A N/A NW10      30.26S
FORT BRIDGER   FAIR      71  12  10 W7        30.27R
ROCK SPRINGS   FAIR      75  14  10 NW10      30.20R
DIXON          FAIR      76  45  32 S5        30.21R
RAWLINS        FAIR      70  15  12 NW10      30.18S
SARATOGA       FAIR      70  37  30 SE8       30.22R
LARAMIE        FAIR      71  36  27 W13       30.23R
CHEYENNE       MOCLDY    79  37  22 S21G26    30.16R
TORRINGTON     FAIR      78  47  33 E8        29.99R
PINE BLUFFS    LGT RAIN  70  50  49 S25G36    30.07S

$$




USA.gov is the U.S. government's official web portal to all federal, state and local government web resources and services.